Weather History for KAIK - March, 2013

Change the Weather History Date:

Tuesday, March 26, 2013

  Actual Average (KAGS) Record (KAGS)
Temperature  
Mean Temperature 41 °F 58 °F  
Max Temperature 50 °F 73 °F 89 °F (1929)
Min Temperature 32 °F 44 °F 27 °F (2006)
Degree Days  
Heating Degree Days 24 7  
Month to date heating degree days 262  
Since 1 July heating degree days 2294  
Cooling Degree Days 0 1  
Month to date cooling degree days 12  
Year to date cooling degree days 15  
Moisture  
Dew Point 28 °F    
Average Humidity 63    
Maximum Humidity 87    
Minimum Humidity 43    
Precipitation  
Precipitation 0.00 in 0.13 in 2.60 in (1901)
Month to date precipitation 3.55  
Year to date precipitation 11.38  
Sea Level Pressure  
Sea Level Pressure 30.08 in    
Wind  
Wind Speed 11 mph (West)    
Max Wind Speed 15 mph    
Max Gust Speed 23 mph    
Visibility 10 miles    
Events      
T = Trace of Precipitation, MM = Missing Value Source: NWS Daily Summary

Daily Weather History Graph

Daily Weather History Graph

Search for Another Location

Airport or City:

Trip Planner

Search our weather history database for the weather conditions in past years. The results will help you decide how hot, cold, wet, or windy it might be!

Date:

Astronomy

Mar. 26, 2013 Rise Set
Actual Time 7:22 AM EDT 7:43 PM EDT
Civil Twilight 6:57 AM EDT 8:07 PM EDT
Nautical Twilight 6:27 AM EDT 8:37 PM EDT
Astronomical Twilight 5:58 AM EDT 9:06 PM EDT
Moon 7:17 PM EDT (3/26) 6:36 AM EDT (3/26)
Length of Visible Light 13h 10m
Length of Day
12h 21m
Waxing Gibbous, 99% of the Moon is Illuminated
Mar 26
Waxing Gibbous
Mar 27
Full
Apr 3
Last Quarter
Apr 10
New
Apr 18
First Quarter

Hourly Weather History & Observations

Time (EDT) Temp. Windchill Dew Point Humidity Pressure Visibility Wind Dir Wind Speed Gust Speed Precip Events Conditions
12:15 AM 37.4 °F 29.3 °F 26.6 °F 65% 30.02 in 10.0 mi West 12.7 mph 19.6 mph N/A   Clear
12:35 AM 35.6 °F 26.6 °F 26.6 °F 70% 30.02 in 10.0 mi West 13.8 mph 19.6 mph N/A   Clear
12:55 AM 35.6 °F 27.5 °F 26.6 °F 70% 30.02 in 10.0 mi West 11.5 mph 17.3 mph N/A   Clear
1:15 AM 35.6 °F 27.5 °F 26.6 °F 70% 30.03 in 10.0 mi West 11.5 mph 19.6 mph N/A   Clear
1:35 AM 35.6 °F 27.1 °F 26.6 °F 70% 30.02 in 10.0 mi West 12.7 mph - N/A   Clear
1:55 AM 35.6 °F 28.0 °F 26.6 °F 70% 30.02 in 10.0 mi West 10.4 mph - N/A   Clear
2:15 AM 35.6 °F 28.0 °F 26.6 °F 70% 30.02 in 10.0 mi West 10.4 mph 18.4 mph N/A   Clear
2:35 AM 33.8 °F 25.8 °F 26.6 °F 75% 30.02 in 10.0 mi West 10.4 mph 16.1 mph N/A   Clear
2:55 AM 33.8 °F 25.8 °F 26.6 °F 75% 30.02 in 10.0 mi West 10.4 mph 16.1 mph N/A   Clear
3:15 AM 33.8 °F 25.8 °F 26.6 °F 75% 30.02 in 10.0 mi West 10.4 mph - N/A   Clear
3:35 AM 33.8 °F 27.0 °F 26.6 °F 75% 30.02 in 10.0 mi West 8.1 mph - N/A   Clear
3:55 AM 33.8 °F 26.4 °F 26.6 °F 75% 30.01 in 10.0 mi West 9.2 mph - N/A   Clear
4:15 AM 33.8 °F 27.7 °F 26.6 °F 75% 30.01 in 10.0 mi West 6.9 mph - N/A   Clear
4:35 AM 33.8 °F 27.0 °F 26.6 °F 75% 30.01 in 10.0 mi West 8.1 mph - N/A   Clear
4:55 AM 32.0 °F 26.4 °F 26.6 °F 80% 30.01 in 10.0 mi West 5.8 mph - N/A   Clear
5:15 AM 32.0 °F 24.8 °F 26.6 °F 80% 30.01 in 10.0 mi West 8.1 mph - N/A   Clear
5:35 AM 32.0 °F 24.8 °F 26.6 °F 80% 30.01 in 10.0 mi West 8.1 mph - N/A   Clear
5:55 AM 32.0 °F 24.8 °F 26.6 °F 80% 30.01 in 10.0 mi West 8.1 mph - N/A   Clear
6:15 AM 32.0 °F 25.6 °F 26.6 °F 80% 30.01 in 10.0 mi West 6.9 mph - N/A   Clear
6:35 AM 32.0 °F 27.5 °F 26.6 °F 80% 30.01 in 10.0 mi WNW 4.6 mph - N/A   Clear
7:15 AM 32.0 °F 25.6 °F 26.6 °F 80% 30.02 in 10.0 mi West 6.9 mph - N/A   Clear
7:35 AM 32.0 °F 24.8 °F 28.4 °F 87% 30.03 in 10.0 mi West 8.1 mph - N/A   Clear
7:55 AM 32.0 °F 24.8 °F 28.4 °F 87% 30.03 in 10.0 mi West 8.1 mph - N/A   Clear
8:15 AM 33.8 °F 27.7 °F 28.4 °F 81% 30.04 in 10.0 mi West 6.9 mph - N/A   Clear
8:35 AM 33.8 °F 25.8 °F 28.4 °F 81% 30.05 in 10.0 mi West 10.4 mph - N/A   Clear
8:55 AM 35.6 °F 28.0 °F 30.2 °F 81% 30.06 in 10.0 mi West 10.4 mph 17.3 mph N/A   Clear
9:15 AM 37.4 °F 28.9 °F 30.2 °F 75% 30.06 in 10.0 mi West 13.8 mph 19.6 mph N/A   Clear
9:35 AM 37.4 °F 28.9 °F 30.2 °F 75% 30.07 in 10.0 mi West 13.8 mph - N/A   Clear
9:55 AM 39.2 °F 30.8 °F 30.2 °F 70% 30.07 in 10.0 mi West 15.0 mph 21.9 mph N/A   Clear
10:15 AM 41.0 °F 35.2 °F 30.2 °F 65% 30.07 in 10.0 mi West 9.2 mph - N/A   Clear
10:35 AM 42.8 °F 36.6 °F 30.2 °F 61% 30.07 in 10.0 mi West 11.5 mph - N/A   Clear
10:55 AM 42.8 °F 38.0 °F 28.4 °F 57% 30.07 in 10.0 mi WNW 8.1 mph - N/A   Clear
11:15 AM 44.6 °F 38.8 °F 28.4 °F 53% 30.08 in 10.0 mi WNW 11.5 mph 20.7 mph N/A   Scattered Clouds
11:35 AM 44.6 °F 38.8 °F 26.6 °F 49% 30.08 in 10.0 mi WNW 11.5 mph 16.1 mph N/A   Mostly Cloudy
12:15 PM 44.6 °F 38.4 °F 28.4 °F 53% 30.08 in 10.0 mi NW 12.7 mph 18.4 mph N/A   Mostly Cloudy
12:35 PM 44.6 °F 38.4 °F 26.6 °F 49% 30.09 in 10.0 mi NW 12.7 mph 23.0 mph N/A   Mostly Cloudy
12:55 PM 44.6 °F 38.1 °F 26.6 °F 49% 30.09 in 10.0 mi NW 13.8 mph 20.7 mph N/A   Overcast
1:15 PM 44.6 °F 38.4 °F 26.6 °F 49% 30.09 in 10.0 mi NW 12.7 mph 17.3 mph N/A   Overcast
1:35 PM 44.6 °F 39.7 °F 26.6 °F 49% 30.10 in 10.0 mi NW 9.2 mph 18.4 mph N/A   Overcast
1:55 PM 48.2 °F - 28.4 °F 46% 30.09 in 10.0 mi West 10.4 mph 19.6 mph N/A   Overcast
2:15 PM 46.4 °F 41.1 °F 28.4 °F 50% 30.09 in 10.0 mi NW 11.5 mph 21.9 mph N/A   Overcast
2:35 PM 46.4 °F 40.7 °F 28.4 °F 50% 30.09 in 10.0 mi NW 12.7 mph 18.4 mph N/A   Overcast
2:55 PM 48.2 °F - 28.4 °F 46% - 10.0 mi WNW 13.8 mph 18.4 mph N/A   Overcast
3:15 PM 46.4 °F 42.4 °F 26.6 °F 46% 30.09 in 10.0 mi NW 8.1 mph 11.5 mph N/A   Overcast
3:35 PM 46.4 °F 42.4 °F 28.4 °F 50% 30.08 in 10.0 mi NW 8.1 mph - N/A   Mostly Cloudy
3:55 PM 48.2 °F - 28.4 °F 46% 30.08 in 10.0 mi WNW 11.5 mph 16.1 mph N/A   Mostly Cloudy
4:15 PM 50.0 °F - 28.4 °F 43% 30.08 in 10.0 mi West 12.7 mph 19.6 mph N/A   Overcast
4:35 PM 48.2 °F - 28.4 °F 46% 30.09 in 10.0 mi WNW 11.5 mph 19.6 mph N/A   Overcast
4:55 PM 48.2 °F - 28.4 °F 46% 30.09 in 10.0 mi West 11.5 mph - N/A   Overcast
5:15 PM 46.4 °F 40.7 °F 28.4 °F 50% 30.10 in 10.0 mi West 12.7 mph 18.4 mph N/A   Overcast
5:35 PM 48.2 °F - 28.4 °F 46% 30.10 in 10.0 mi West 15.0 mph 20.7 mph N/A   Overcast
5:55 PM 48.2 °F - 28.4 °F 46% 30.10 in 10.0 mi West 11.5 mph - N/A   Overcast
6:15 PM 46.4 °F 41.1 °F 28.4 °F 50% 30.11 in 10.0 mi West 11.5 mph 17.3 mph N/A   Mostly Cloudy
6:35 PM 46.4 °F 41.5 °F 30.2 °F 53% 30.12 in 10.0 mi West 10.4 mph - N/A   Mostly Cloudy
6:55 PM 46.4 °F 40.1 °F 28.4 °F 50% 30.13 in 10.0 mi WNW 15.0 mph 20.7 mph N/A   Overcast
7:15 PM 46.4 °F 41.1 °F 28.4 °F 50% 30.13 in 10.0 mi West 11.5 mph 18.4 mph N/A   Mostly Cloudy
7:35 PM 44.6 °F 39.7 °F 28.4 °F 53% 30.14 in 10.0 mi West 9.2 mph - N/A   Mostly Cloudy
7:55 PM 44.6 °F 40.2 °F 28.4 °F 53% 30.15 in 10.0 mi West 8.1 mph - N/A   Scattered Clouds
8:15 PM 44.6 °F 39.7 °F 30.2 °F 57% 30.16 in 10.0 mi West 9.2 mph - N/A   Scattered Clouds
8:35 PM 42.8 °F 38.0 °F 30.2 °F 61% 30.17 in 10.0 mi West 8.1 mph - N/A   Scattered Clouds
8:55 PM 42.8 °F 38.0 °F 30.2 °F 61% 30.17 in 10.0 mi West 8.1 mph - N/A   Scattered Clouds
9:15 PM 42.8 °F 37.5 °F 30.2 °F 61% 30.18 in 10.0 mi West 9.2 mph - N/A   Clear
9:35 PM 41.0 °F 35.8 °F 30.2 °F 65% 30.19 in 10.0 mi West 8.1 mph - N/A   Clear
9:55 PM 41.0 °F 34.7 °F 30.2 °F 65% 30.20 in 10.0 mi West 10.4 mph - N/A   Scattered Clouds
10:15 PM 41.0 °F 33.9 °F 30.2 °F 65% 30.21 in 10.0 mi West 12.7 mph 16.1 mph N/A   Scattered Clouds
10:35 PM 41.0 °F 34.3 °F 30.2 °F 65% 30.22 in 10.0 mi West 11.5 mph 17.3 mph N/A   Scattered Clouds
11:15 PM 37.4 °F 31.4 °F 28.4 °F 70% 30.23 in 10.0 mi WNW 8.1 mph - N/A   Clear
11:35 PM 37.4 °F 32.1 °F 28.4 °F 70% 30.24 in 10.0 mi WNW 6.9 mph - N/A   Clear
11:55 PM 35.6 °F 30.7 °F 28.4 °F 75% 30.24 in 10.0 mi West 5.8 mph - N/A   Clear